Location: Nantong Television Tower
(32.0188°N, 120.8512°E)
Time: 20:22:51
(UTC+08:00)

Vanguard 3 - Visible Passes

Search period start: 26 January 2015 00:00
Search period end: 05 February 2015 00:00
Orbit: 509 x 3276 km, 33.4° (Epoch: 25 January)

Date Brightness Start Highest point End Pass type
(mag) Time Alt. Az. Time Alt. Az. Time Alt. Az.
26 Jan 10.0 17:51:50 10° SW 18:06:17 70° SSE 18:24:23 15° ENE visible
26 Jan 9.8 20:05:38 10° W 20:23:56 87° N 20:29:05 62° ENE visible
26 Jan 10.5 22:22:04 10° W 22:33:46 46° W 22:33:46 46° W visible
27 Jan 9.9 18:51:57 10° WSW 19:08:03 87° SSE 19:20:44 32° E visible
27 Jan 9.9 21:07:07 10° W 21:25:26 83° WNW 21:25:26 83° WNW visible
27 Jan 11.1 23:24:11 10° WNW 23:30:08 25° WNW 23:30:08 25° WNW visible
28 Jan 9.9 17:39:09 10° WSW 17:52:51 75° SSE 18:12:23 11° ENE visible
28 Jan 9.9 19:52:51 10° W 20:10:29 86° N 20:17:05 56° E visible
28 Jan 10.3 22:08:52 10° WNW 22:21:47 52° W 22:21:47 52° W visible
29 Jan 9.9 18:39:20 10° WSW 18:54:40 90° SSE 19:08:43 27° E visible
29 Jan 9.8 20:54:10 10° W 21:13:06 89° N 21:13:26 88° ENE visible
29 Jan 10.9 23:10:48 10° WNW 23:18:07 29° W 23:18:07 29° W visible
30 Jan 9.9 17:26:36 10° WSW 17:39:31 80° SSE 17:59:21 10° ENE visible
30 Jan 9.9 19:40:09 10° W 19:57:04 86° N 20:05:05 49° E visible
30 Jan 10.2 21:55:42 10° WNW 22:09:47 59° W 22:09:47 59° W visible
31 Jan 11.5 00:13:21 10° WNW 00:14:29 12° WNW 00:14:29 12° WNW visible
31 Jan 9.9 18:26:48 10° W 18:41:20 88° N 18:56:45 23° E visible
31 Jan 9.8 20:41:17 10° W 20:59:35 89° SSW 21:01:27 80° ESE visible
31 Jan 10.8 22:57:31 10° WNW 23:06:09 33° W 23:06:09 33° W visible
01 Feb 9.9 19:27:30 10° W 19:43:40 86° N 19:53:08 43° E visible
01 Feb 10.1 21:42:36 10° WNW 21:57:50 64° WSW 21:57:50 64° WSW visible
02 Feb 11.4 00:00:09 10° W 00:02:33 15° W 00:02:33 15° W visible
02 Feb 9.8 18:14:21 10° W 18:28:05 86° N 18:44:52 18° E visible
02 Feb 9.8 20:28:27 10° WNW 20:46:03 86° SSW 20:49:34 70° ESE visible
02 Feb 10.7 22:44:20 10° WNW 22:54:16 37° W 22:54:16 37° W visible
03 Feb 9.8 19:14:55 10° W 19:30:17 87° N 19:41:20 37° E visible
03 Feb 10.0 21:29:36 10° WNW 21:46:03 67° SW 21:46:03 67° SW visible
03 Feb 11.3 23:47:09 10° W 23:50:45 17° W 23:50:45 17° W visible
04 Feb 9.7 18:01:58 10° W 18:14:55 85° N 18:33:08 14° E visible
04 Feb 9.9 20:15:40 10° WNW 20:32:29 82° SSW 20:37:52 60° SE visible
04 Feb 10.6 22:31:17 10° WNW 22:42:35 39° WSW 22:42:35 39° WSW visible
